This demonstration page uses our WeatherBlox Daily Observations layout. Learn more.

39.08367, -84.50855

Hourly Observations for August 7, 2019

Temp ( °F °C ) Dew Point ( °F °C ) Humidity (%) Winds ( mph kmh ) Pressure ( in mb ) Visibility ( mi km ) Precip ( " mm )
12:02 am 00:02 Mostly Cloudy with Thunderstorms 71 21.7 66 18.9 84 84 Calm 29.83 1010 10 16.09344 0 0
12:20 am 00:20 Mostly Cloudy with Heavy Thunderstorms 69 20.6 68 20 96 96 Calm 29.83 1010 1.75 2.816352 0.1 2.54
12:26 am 00:26 Mostly Cloudy with Light Thunderstorms 69 20.6 68 20 96 96 VRB 3 6 29.83 1010 3 4.828032 0.1 2.54
12:53 am 00:53 Mostly Cloudy with Heavy Thunderstorms 70 21.1 66 18.9 87 87 WSW 10 17 29.8 1009 3 4.828032 0.19 4.826
1:12 am 01:12 Mostly Cloudy with Light Rain 68 20 65 18.3 90 90 SE 7 11 29.8 1009 9 14.484096 0.03 0.762
1:53 am 01:53 Cloudy 68 20 66 18.9 93 93 Calm 29.83 1010 10 16.09344 0.03 0.762
2:00 am 02:00 Cloudy with Nearby Thunderstorms 68 20 66 18.9 93 93 Calm 29.83 1010 10 16.09344 0 0
2:25 am 02:25 Cloudy with Nearby Thunderstorms 68 20 67 19.4 96 96 Calm 29.85 1011 10 16.09344 0 0
2:33 am 02:33 Cloudy with Nearby Thunderstorms 69 20.6 67 19.4 93 93 VRB 5 7 29.83 1010 10 16.09344 0 0
2:53 am 02:53 Mostly Cloudy 69 20.6 67 19.4 93 93 NNE 3 6 29.8 1009 10 16.09344 0.001 0.001
3:53 am 03:53 Partly Cloudy 67 19.4 66 18.9 97 97 Calm 29.8 1009 10 16.09344 0 0
4:48 am 04:48 Mostly Cloudy 68 20 66 19 94 94 Calm 29.85 1011 10 16.09344 0 0
4:53 am 04:53 Mostly Cloudy 67 19.4 66 18.9 97 97 Calm 29.83 1010 10 16.09344 0 0
5:14 am 05:14 Partly Cloudy 66 18.9 65 18.3 96 96 SSW 3 6 29.83 1010 9 14.484096 0 0
5:53 am 05:53 Clear 65 18.3 64 17.8 97 97 S 3 6 29.8 1009 7 11.265408 0 0
6:01 am 06:01 Mostly Clear 66 18.9 65 18.3 96 96 S 3 6 29.83 1010 7 11.265408 0 0
6:18 am 06:18 Mostly Cloudy 66 18.9 66 18.9 100 100 S 5 7 29.83 1010 7 11.265408 0 0
6:53 am 06:53 Cloudy with Mist and Fog 69 20.6 68 20 96 96 SSW 3 6 29.83 1010 6 9.656064 0 0
7:34 am 07:34 Mostly Cloudy with Mist and Fog 69 20.6 68 20 96 96 Calm 29.85 1011 6 9.656064 0 0
7:53 am 07:53 Mostly Cloudy with Mist and Fog 70 21.1 69 20.6 97 97 Calm 29.83 1010 6 9.656064 0 0
8:53 am 08:53 Cloudy with Mist and Fog 71 21.7 69 20.6 94 94 SW 5 7 29.83 1010 6 9.656064 0 0
9:53 am 09:53 Mostly Cloudy 73 22.8 69 20.6 87 87 VRB 7 11 29.85 1011 8 12.874752 0 0
10:53 am 10:53 Partly Cloudy 77 25 71 21.7 82 82 VRB 5 7 29.85 1011 10 16.09344 0 0
11:53 am 11:53 Partly Cloudy 79 26.1 70 21.1 74 74 SW 7 11 29.85 1011 10 16.09344 0 0
12:53 pm 12:53 Partly Cloudy 83 28.3 66 18.9 57 57 SW 6 9 29.83 1010 10 16.09344 0 0
1:53 pm 13:53 Partly Cloudy 84 28.9 65 18.3 53 53 VRB 5 7 29.83 1010 10 16.09344 0 0
2:53 pm 14:53 Partly Cloudy 86 30 65 18.3 49 49 WNW 7 11 29.83 1010 10 16.09344 0 0
3:53 pm 15:53 Mostly Cloudy 84 28.9 60 15.6 44 44 NW 8 13 29.8 1009 10 16.09344 0 0
4:53 pm 16:53 Partly Cloudy 86 30 60 15.6 42 42 NNW 8 13 29.8 1009 10 16.09344 0 0
5:53 pm 17:53 Partly Cloudy 86 30 58 14.4 39 39 WNW 10 17 29.8 1009 10 16.09344 0 0
6:53 pm 18:53 Partly Cloudy 85 29.4 59 15 42 42 NW 6 9 29.8 1009 10 16.09344 0 0
7:53 pm 19:53 Sunny 83 28.3 58 14.4 43 43 NW 7 11 29.8 1009 10 16.09344 0 0
8:53 pm 20:53 Clear 73 22.8 65 18.3 76 76 Calm 29.8 1009 10 16.09344 0 0
9:53 pm 21:53 Mostly Clear 69 20.6 65 18.3 87 87 Calm 29.83 1010 10 16.09344 0 0
10:53 pm 22:53 Clear 68 20 64 17.8 87 87 Calm 29.83 1010 10 16.09344 0 0
11:53 pm 23:53 Mostly Clear 67 19.4 64 17.8 91 91 Calm 29.85 1011 10 16.09344 0 0

Powered by AerisWeather